Location: Newark
(15.4608°S, 41.1635°W)
Time: 08:49:47
(UTC+00:00)

Transit 4A - Pass Details

Date: 12 March 2021
Orbit: 869 x 975 km, 66.8° (Epoch: 22 April)

Event Time Altitude Azimuth Distance (km) Brightness Sun altitude
Rises 21:44:26 0° 342° (NNW) 3,441 11.0 -11.3°
Reaches altitude 10° 21:46:54 10° 342° (NNW) 2,505 10.3 -11.9°
Maximum altitude 21:52:41 84° 70° (ENE) 881 7.7 -13.2°
Drops below altitude 10° 21:58:32 10° 157° (SSE) 2,540 10.0 -14.6°
Sets 22:01:03 0° 158° (SSE) 3,493 10.8 -15.2°
